User: anonymous   Login
Location: Unspecified
(0.0000°N, 0.0000°E)
Time: 00:32:39
(UTC+00:00)
Language:

GALILEO-FM2 - Orbit

View from above orbital plane
View from above orbital plane
View from above satellite
View from above satellite

Ground track
Ground track

The orbit data is extracted from the following two-line orbital elements,

1 37847U 11060B   23033.11175858 -.00000084  00000-0  00000-0 0  9997
2 37847  57.0693  15.0992 0005108 320.3889  36.2062  1.70475455 70132
Epoch (UTC): 02 February 2023 02:40:55
Eccentricity: 0.0005108
inclination: 57.0693°
perigee height: 23206 km
apogee height: 23237 km
right ascension of ascending node: 15.0992°
argument of perigee: 320.3889°
revolutions per day: 1.70475455
mean anomaly at epoch: 36.2062°
orbit number at epoch: 7013

The dashed part of the orbit path shows where the satellite is in the earth's shadow,  

DLR